カタログに戻る

COSMOS 1375 DEB

運用中LEO
NORAD 16208·DEBRIS·🇷🇺 Russia

打ち上げ Jun 6, 1982 から Plesetsk Cosmodrome

Loading…

次のパス (今後24時間)

TLE

最新Source: Space-Track

元期: Sep 14, 2026, 21:29 UTC

1 16208U 82055K   26257.89548522 -.00000036  00000-0  45258-4 0  9990
2 16208  65.8333 123.8079 0046301 202.7459 175.4230 13.76193040 54533

AllMySatでCOSMOS 1375 DEBをリアルタイム追跡

Download on the App Store